Weather Roundup
Issued by NWS Springfield, MO

Home | Current Version | Previous Version | Text Only | Print | Product List | Glossary On
Versions: 1 2 3 4 5 6 7 8 9 10 11 12 13 14 15 16 17 18 19 20 21 22 23 24 25 26 27 28 29 30 31 32 33 34 35 36 37 38 39 40 41 42 43 44 45 46 47 48 49 50
000
NZUS99 KSGF 221707
HRRSGF

HOURLY WEATHER
NATIONAL WEATHER SERVICE SPRINGFIELD MO
1100 AM CST THU FEB 22 2018

......SGF CWA......

CITY           SKY/WX    TMP DP  RH WIND       PRES   REMARKS
SPRINGFIELD    CLOUDY    39  38  96 S8        30.32R WCI  33
JOPLIN         CLOUDY    36  36 100 E7        30.30F FOG     WCI  30
WEST PLAINS    FOG       37  36  96 NE8       30.32F VSB 1/4 WCI  31
ROLLA          CLOUDY    35  35 100 E10       30.36F FOG     WCI  27
OSAGE BEACH    CLOUDY    34  33  96 E8        30.35F WCI  27
BRANSON        FOG       36  36 100 E5        30.32F VSB 1/4 WCI  32

......SURROUNDING SGF CWA......

CITY           SKY/WX    TMP DP  RH WIND       PRES   REMARKS
CHANUTE        CLOUDY    32  32 100 NE6       30.32F FOG     WCI  26
PARSONS        CLOUDY    34  33  96 NE8       30.29F WCI  27
COFFEYVILLE    CLOUDY    35  35 100 NE10      30.29F FOG     WCI  27
EMPORIA        CLOUDY    30  28  92 E8        30.31F FOG     WCI  22
GROVE OK       CLOUDY    41  37  87 CALM      30.30F
ROGERS AR      MOSUNNY   43  37  81 SE9       30.30F
SILOAM SPRINGS CLOUDY    47  42  83 VRB5      30.28F
HARRISON AR    CLOUDY    38  38 100 SE8       30.32S WCI  32
NEAR YELLVILLE CLOUDY    39  36  89 E3        30.36R

......KANSAS AND MISSOURI......

CITY           SKY/WX    TMP DP  RH WIND       PRES   REMARKS
KANSAS CTY INT FRZ DRZL  30  28  92 E8        30.37S VSB 1   WCI  22
DOWNTOWN KC    CLOUDY    31  28  89 E6        30.38F FOG     WCI  25
COLUMBIA       CLOUDY    34  33  96 E12       30.35F WCI  25
SEDALIA        CLOUDY    33  33 100 E6        30.38R FOG     WCI  28
ST JOSEPH      CLOUDY    29  29 100 SE7       30.39F FOG     WCI  22
ST LOUIS       LGT RAIN  38  38 100 NE3       30.41F VSB 3/4
SPIRIT OF STL  CLOUDY    38  37  97 NE5       30.40F FOG     WCI  34
KIRKSVILLE     FOG       30  30 100 E13       30.40F VSB 1   WCI  20
WICHITA        FRZ RAIN  29  29 100 CALM      30.34R FOG
TOPEKA         FRZ RAIN  30  29  96 E5        30.36F FOG     WCI  25
OLATHE         CLOUDY    29  29 100 E8        30.35F FOG     WCI  21

......TENNESSEE......

CITY           SKY/WX    TMP DP  RH WIND       PRES   REMARKS
MEMPHIS        DRIZZLE   47  45  93 E6        30.38F FOG
NASHVILLE      CLOUDY    57  55  93 NW6       30.39R

......ARKANSAS.......

CITY           SKY/WX    TMP DP  RH WIND       PRES   REMARKS
FAYETTEVILLE   SUNNY     51  45  79 NE5       30.28F
FT SMITH       CLOUDY    44  42  93 E8        30.31S
LITTLE ROCK    CLOUDY    44  42  93 NE6       30.36F

......OKLAHOMA.......

CITY           SKY/WX    TMP DP  RH WIND       PRES   REMARKS
TULSA          CLOUDY    37  35  92 CALM      30.32R
PONCA CITY     FRZ RAIN  32  29  88 NE6       30.33S WCI  26
MCALESTER      CLOUDY    36  36 100 VRB6      30.27F FOG     WCI  31
OKLAHOMA CITY  TSTM      30  29  96 E16       30.25F FOG     WCI  19

......IOWA............

CITY           SKY/WX    TMP DP  RH WIND       PRES   REMARKS
DES MOINES     CLOUDY    27  23  85 E10G22    30.41F WCI  17
QUAD CITIES    CLOUDY    35  27  72 E15       30.47F WCI  25

......ILLINOIS........

CITY           SKY/WX    TMP DP  RH WIND       PRES   REMARKS
QUINCY         FOG       32  31  96 NE6       30.42S VSB 3/4 WCI  26
CHICAGO        CLOUDY    38  29  70 E14       30.53F WCI  30




USA.gov is the U.S. government's official web portal to all federal, state and local government web resources and services.